World > North America > United States > New York
Hourly Weather in Wurtsboro, New YorkWurtsboro, New York Hourly Weather

Wurtsboro, NY Hourly Weather

Hourly Weather Wurtsboro, New YorkHourly Weather in Wurtsboro, NY
Lat: 41.58N, Lon: 74.49W  ICAO: KMGJ
Web Search
Wurtsboro Weather Warning NWS WEATHER ALERT FOR THE WURTSBORO, NY AREA - WIND ADVISORY Issued: 347 AM EST Mon Dec 6 2021 Wurtsboro Weather Warning  

Ads allow us to feed your daily addiction for the world's greatest weather information. We're determined to offer quality sponsors, in the least annoying way possible.

Feedback

Wurtsboro Hourly Weather

36 Hour Weather Scroll   °F Click to change Wurtsboro hourly weather to Imperial units.Click to change Wurtsboro hourly weather to Metric units. °C
Currently, Fog And Mist, temperature is 44°F7°C, dew point 43°F6°C, humidity 96%. Wind direction is N at 0 mph0 km/h with visibility of 6.00 mi10 km. Barometric pressure is 29.85 in1011 mb.

Dec 06
10:00 AM

Dec 06
11:00 AM

Dec 06
NOON

Dec 06
1:00 PM

Dec 06
2:00 PM

Dec 06
3:00 PM

Dec 06
4:00 PM

Dec 06
5:00 PM

Dec 06
6:00 PM

Dec 06
7:00 PM

Dec 06
8:00 PM

Dec 06
9:00 PM

Dec 06
10:00 PM

Dec 06
11:00 PM

Dec 07
MIDNIGHT

Dec 07
1:00 AM

Dec 07
2:00 AM

Dec 07
3:00 AM

Dec 07
4:00 AM

Dec 07
5:00 AM

Dec 07
6:00 AM

Dec 07
7:00 AM

Dec 07
8:00 AM

Dec 07
9:00 AM

Dec 07
10:00 AM

Dec 07
11:00 AM

Dec 07
NOON

Dec 07
1:00 PM

Dec 07
2:00 PM

Dec 07
3:00 PM

Dec 07
4:00 PM

Dec 07
5:00 PM

Dec 07
6:00 PM

Dec 07
7:00 PM

Dec 07
8:00 PM

Dec 07
9:00 PM
Cloudy Cloudy Cloudy Cloudy Cloudy Cloudy Cloudy Cloudy Cloudy Cloudy Cloudy Partly Cloudy Partly Cloudy Partly Cloudy Mostly Clear Mostly Clear Mostly Clear Partly Cloudy Partly Cloudy Partly Cloudy Clear Clear Clear Mostly Cloudy Mostly Cloudy Mostly Cloudy Mostly Cloudy Mostly Cloudy Mostly Cloudy Mostly Cloudy Mostly Cloudy Mostly Cloudy Mostly Cloudy Mostly Cloudy Mostly Cloudy Cloudy
Cloudy Cloudy Cloudy Cloudy Cloudy Cloudy Cloudy Cloudy Cloudy Cloudy Cloudy Partly Cloudy Partly Cloudy Partly Cloudy Mostly Clear Mostly Clear Mostly Clear Partly Cloudy Partly Cloudy Partly Cloudy Clear Clear Clear Mostly Cloudy Mostly Cloudy Mostly Cloudy Mostly Cloudy Mostly Cloudy Mostly Cloudy Mostly Cloudy Mostly Cloudy Mostly Cloudy Mostly Cloudy Mostly Cloudy Mostly Cloudy Cloudy
48°F9°C 51°F11°C 53°F12°C 56°F13°C 56°F13°C 55°F13°C 55°F13°C 53°F12°C 50°F10°C 48°F9°C 47°F8°C 47°F8°C 46°F8°C 45°F7°C 43°F6°C 42°F6°C 41°F5°C 39°F4°C 38°F3°C 37°F3°C 35°F2°C 34°F1°C 35°F2°C 35°F2°C 36°F2°C 37°F3°C 38°F3°C 39°F4°C 39°F4°C 38°F3°C 38°F3°C 35°F2°C 32°F0°C 29°F-2°C 28°F-2°C 28°F-2°C
Rain Rain Rain Rain Rain Rain Rain Rain Rain Rain Rain Snow Snow Snow Snow Snow - - - - - - - - - - - - - - - - - - - -
38% 38% 38% 38% 61% 61% 61% 61% 61% 61% 75% 75% 75% 75% 75% 75% 0% 0% 0% 0% 0% 0% 0% 0% 0% 0% 0% 0% 2% 2% 2% 2% 2% 2% 4% 4%
43°F6°C 44°F7°C 46°F8°C 47°F8°C 46°F8°C 46°F8°C 45°F7°C 43°F6°C 42°F6°C 40°F4°C 39°F4°C 38°F3°C 37°F3°C 36°F2°C 34°F1°C 33°F1°C 31°F-1°C 29°F-2°C 27°F-3°C 25°F-4°C 24°F-4°C 22°F-6°C 21°F-6°C 20°F-7°C 19°F-7°C 18°F-8°C 18°F-8°C 17°F-8°C 16°F-9°C 16°F-9°C 15°F-9°C 15°F-9°C 16°F-9°C 16°F-9°C 17°F-8°C 17°F-8°C
83% 77% 77% 72% 69% 72% 69% 69% 74% 74% 74% 71% 71% 71% 70% 70% 67% 67% 64% 61% 64% 61% 56% 54% 50% 46% 44% 40% 39% 40% 39% 43% 51% 58% 63% 63%
SW SW SW SW SW SW SW SW SSW SSW SSW SSW W W W W W W W W SSW SSW W W W W WNW WNW WNW W W W W W S E
6 mph 6 mph 12 mph 12 mph 12 mph 15 mph 15 mph 15 mph 16 mph 16 mph 16 mph 15 mph 15 mph 15 mph 13 mph 13 mph 13 mph 11 mph 11 mph 11 mph 7 mph 7 mph 7 mph 9 mph 9 mph 9 mph 10 mph 10 mph 10 mph 7 mph 7 mph 7 mph 1 mph 1 mph 1 mph 0 mph
10 mi16 km 10 mi16 km 10 mi16 km 10 mi16 km 10 mi16 km 10 mi16 km 10 mi16 km 6 mi10 km 6 mi10 km 5 mi8 km 6 mi10 km 6 mi10 km 10 mi16 km 10 mi16 km 10 mi16 km 10 mi16 km 10 mi16 km 10 mi16 km 10 mi16 km 10 mi16 km 10 mi16 km 10 mi16 km 10 mi16 km 10 mi16 km 10 mi16 km 10 mi16 km 10 mi16 km 10 mi16 km 10 mi16 km 10 mi16 km 10 mi16 km 10 mi16 km 10 mi16 km 10 mi16 km 10 mi16 km 10 mi16 km
Hour (EST)
Weather
Clouds
Temperature
Precip. Type
POP
Dewpoint
Humidity
Wind Direction
Wind Speed
Visibility
POP = Probability of Precipitation. ** Indicates missing data/values from model statistics.

24 Hour Forecast

Rest of Today - Areas of fog late this morning. A chance of showers late this morning, then showers this afternoon. Highs in the mid 50s. South winds 5 to 10 mph with gusts up to 25 mph, increasing to 15 to 20 mph with gusts up to 40 mph this afternoon. Chance of rain near 100%.
Tonight - Mostly cloudy with rain showers with a chance of snow showers in the evening, then partly cloudy after midnight. Little or no snow accumulation. Lows in the mid 20s. West winds 15 to 20 mph with gusts up to 40 mph. Chance of precipitation 90%.

48 Hour Forecast API Feed


Mon, Dec 6
10:00 am

Mon, Dec 6
11:00 am

Mon, Dec 6
Noon

Mon, Dec 6
1:00 pm

Mon, Dec 6
2:00 pm

Mon, Dec 6
3:00 pm

Mon, Dec 6
4:00 pm

Mon, Dec 6
5:00 pm

Mon, Dec 6
6:00 pm

Mon, Dec 6
7:00 pm

Mon, Dec 6
8:00 pm

Mon, Dec 6
9:00 pm

Mon, Dec 6
10:00 pm

Mon, Dec 6
11:00 pm

Tue, Dec 7
Midnight

Tue, Dec 7
1:00 am

Tue, Dec 7
2:00 am

Tue, Dec 7
3:00 am

Tue, Dec 7
4:00 am

Tue, Dec 7
5:00 am

Tue, Dec 7
6:00 am

Tue, Dec 7
7:00 am

Tue, Dec 7
8:00 am

Tue, Dec 7
9:00 am

Tue, Dec 7
10:00 am

Tue, Dec 7
11:00 am

Tue, Dec 7
Noon

Tue, Dec 7
1:00 pm

Tue, Dec 7
2:00 pm

Tue, Dec 7
3:00 pm

Tue, Dec 7
4:00 pm

Tue, Dec 7
5:00 pm

Tue, Dec 7
6:00 pm

Tue, Dec 7
7:00 pm

Tue, Dec 7
8:00 pm

Tue, Dec 7
9:00 pm

Tue, Dec 7
10:00 pm

Tue, Dec 7
11:00 pm

Wed, Dec 8
Midnight

Wed, Dec 8
1:00 am

Wed, Dec 8
2:00 am

Wed, Dec 8
3:00 am

Wed, Dec 8
4:00 am

Wed, Dec 8
5:00 am

Wed, Dec 8
6:00 am

Wed, Dec 8
7:00 am

Wed, Dec 8
8:00 am

Wed, Dec 8
9:00 am
FogMistOvercastOvercastOvercastOvercastOvercastPatchy Rain PossibleOvercastPatchy Rain PossibleLight RainLight RainLight SleetPatchy Snow PossiblePatchy Heavy SnowPatchy Heavy SnowPatchy Heavy SnowClearPartly CloudyClearClearClearSunnySunnySunnyCloudyPartly CloudyPartly CloudyCloudyCloudyPartly CloudyClearClearPartly CloudyPartly CloudyPartly CloudyOvercastOvercastOvercastOvercastOvercastOvercastOvercastLight SnowOvercastLight SnowOvercastLight Snow
Fog Mist Overcast Overcast Overcast Overcast Overcast Patchy rain possible Overcast Patchy rain possible Light rain Light rain Light sleet Patchy snow possible Patchy heavy snow Patchy heavy snow Patchy heavy snow Clear Partly cloudy Clear Clear Clear Sunny Sunny Sunny Cloudy Partly cloudy Partly cloudy Cloudy Cloudy Partly cloudy Clear Clear Partly cloudy Partly cloudy Partly cloudy Overcast Overcast Overcast Overcast Overcast Overcast Overcast Light snow Overcast Light snow Overcast Light snow
42°F
6°C
46°F
8°C
51°F
11°C
52°F
11°C
53°F
12°C
55°F
13°C
56°F
13°C
57°F
14°C
58°F
14°C
58°F
15°C
50°F
10°C
43°F
6°C
40°F
5°C
38°F
3°C
35°F
2°C
33°F
1°C
33°F
0°C
32°F
0°C
32°F
-0°C
31°F
-0°C
30°F
-1°C
30°F
-1°C
29°F
-2°C
30°F
-1°C
31°F
-0°C
33°F
1°C
34°F
1°C
35°F
2°C
36°F
2°C
36°F
2°C
36°F
2°C
34°F
1°C
30°F
-1°C
30°F
-1°C
29°F
-2°C
29°F
-1°C
31°F
-1°C
30°F
-1°C
31°F
-1°C
31°F
-1°C
31°F
-1°C
31°F
-1°C
31°F
-1°C
30°F
-1°C
30°F
-1°C
30°F
-1°C
30°F
-1°C
30°F
-1°C
42°F
5°C
46°F
8°C
48°F
9°C
49°F
10°C
50°F
10°C
51°F
11°C
52°F
11°C
52°F
11°C
53°F
12°C
53°F
12°C
45°F
7°C
39°F
4°C
35°F
1°C
27°F
-3°C
24°F
-4°C
23°F
-5°C
23°F
-5°C
23°F
-5°C
24°F
-5°C
23°F
-5°C
21°F
-6°C
21°F
-6°C
20°F
-7°C
20°F
-7°C
18°F
-8°C
17°F
-9°C
16°F
-9°C
16°F
-9°C
15°F
-9°C
15°F
-9°C
15°F
-9°C
17°F
-8°C
16°F
-9°C
17°F
-9°C
16°F
-9°C
16°F
-9°C
16°F
-9°C
16°F
-9°C
16°F
-9°C
17°F
-9°C
17°F
-9°C
17°F
-8°C
17°F
-8°C
17°F
-8°C
18°F
-8°C
18°F
-8°C
18°F
-8°C
19°F
-7°C
29.88 in
1012 mb
29.85 in
1011 mb
29.8 in
1009 mb
29.74 in
1007 mb
29.71 in
1006 mb
29.65 in
1004 mb
29.65 in
1004 mb
29.59 in
1002 mb
29.59 in
1002 mb
29.56 in
1001 mb
29.65 in
1004 mb
29.74 in
1007 mb
29.8 in
1009 mb
29.83 in
1010 mb
29.88 in
1012 mb
29.91 in
1013 mb
29.94 in
1014 mb
30 in
1016 mb
30.03 in
1017 mb
30.03 in
1017 mb
30.09 in
1019 mb
30.12 in
1020 mb
30.12 in
1020 mb
30.18 in
1022 mb
30.21 in
1023 mb
30.21 in
1023 mb
30.21 in
1023 mb
30.18 in
1022 mb
30.18 in
1022 mb
30.18 in
1022 mb
30.18 in
1022 mb
30.21 in
1023 mb
30.21 in
1023 mb
30.24 in
1024 mb
30.27 in
1025 mb
30.27 in
1025 mb
30.27 in
1025 mb
30.24 in
1024 mb
30.24 in
1024 mb
30.21 in
1023 mb
30.21 in
1023 mb
30.21 in
1023 mb
30.21 in
1023 mb
30.18 in
1022 mb
30.18 in
1022 mb
30.18 in
1022 mb
30.18 in
1022 mb
30.18 in
1022 mb
99%97%91%90%88%86%86%84%85%83%82%86%80%65%65%65%67%69%73%71%69%68%69%66%57%50%47%45%43%42%43%48%55%57%57%56%54%55%55%55%55%56%57%58%59%60%61%61%
SSSWSSWSSWSSWSSWSSWSSWSSWSWWWWNWWNWWNWWWWWNWWNWWNWWNWWNWWNWWNWWNWWNWWNWWNWWWWNWWWNWWNWWNWWWNWWNWSNEEEEENEE
3 mph
5 km/h
8 mph
12 km/h
13 mph
20 km/h
15 mph
24 km/h
15 mph
25 km/h
17 mph
27 km/h
16 mph
26 km/h
17 mph
28 km/h
18 mph
29 km/h
18 mph
28 km/h
22 mph
36 km/h
17 mph
27 km/h
17 mph
28 km/h
17 mph
28 km/h
16 mph
26 km/h
15 mph
24 km/h
14 mph
22 km/h
12 mph
19 km/h
10 mph
16 km/h
9 mph
14 km/h
10 mph
16 km/h
9 mph
14 km/h
8 mph
13 km/h
7 mph
12 km/h
9 mph
15 km/h
10 mph
15 km/h
9 mph
15 km/h
9 mph
15 km/h
9 mph
15 km/h
10 mph
16 km/h
8 mph
13 km/h
7 mph
11 km/h
5 mph
8 km/h
3 mph
5 km/h
3 mph
5 km/h
2 mph
4 km/h
2 mph
3 km/h
2 mph
3 km/h
1 mph
2 km/h
1 mph
1 km/h
0 mph
1 km/h
1 mph
1 km/h
0 mph
0 km/h
1 mph
2 km/h
2 mph
3 km/h
2 mph
4 km/h
3 mph
5 km/h
2 mph
4 km/h
0%74%0%0%0%0%0%95%0%53%94%94%83%83%79%0%0%0%0%0%0%0%0%0%0%0%0%0%0%0%0%0%0%0%0%0%0%0%0%0%0%0%0%0%0%0%0%0%
0 mi
0 km
1 mi
2 km
6 mi
10 km
6 mi
10 km
6 mi
10 km
6 mi
10 km
6 mi
10 km
6 mi
10 km
6 mi
10 km
6 mi
10 km
6 mi
9 km
6 mi
9 km
6 mi
9 km
6 mi
9 km
3 mi
5 km
3 mi
5 km
3 mi
5 km
6 mi
10 km
6 mi
10 km
6 mi
10 km
6 mi
10 km
6 mi
10 km
6 mi
10 km
6 mi
10 km
6 mi
10 km
6 mi
10 km
6 mi
10 km
6 mi
10 km
6 mi
10 km
6 mi
10 km
6 mi
10 km
6 mi
10 km
6 mi
10 km
6 mi
10 km
6 mi
10 km
6 mi
10 km
6 mi
10 km
6 mi
10 km
6 mi
10 km
6 mi
10 km
6 mi
10 km
6 mi
10 km
6 mi
10 km
6 mi
10 km
6 mi
10 km
6 mi
10 km
6 mi
10 km
6 mi
10 km

Day/Time
Weather
Condition
Temperature
Dew Point
Pressure
Humidity
Wind Direction
Wind Speed
Prob Precip %
Visibility
Prob Precip % = Probability of Precipitation.